Stündliche Wetter Bolshie Kibya-Kozi

Heute, 21 April, Mittwoch

Zeit Temperatur Niederschläge Wind Luftdruck Luftfeuchtigkeit
00:00 0°C° 0 mm 4 m/S 761 mmHg 53%
01:00 0°C° 0 mm 5 m/S 761 mmHg 53%
02:00 0°C° 0 mm 5 m/S 761 mmHg 53%
03:00 -1°C° 0 mm 6 m/S 760 mmHg 52%
04:00 +1°C° 0 mm 6 m/S 760 mmHg 51%
05:00 0°C° 0 mm 7 m/S 760 mmHg 50%
06:00 0°C° 0 mm 8 m/S 759 mmHg 49%
07:00 +1°C° 0 mm 8 m/S 759 mmHg 47%
08:00 +2°C° 0 mm 8 m/S 759 mmHg 45%
09:00 +3°C° 0 mm 9 m/S 759 mmHg 43%
10:00 +3°C° 0.1 mm 9 m/S 759 mmHg 43%
11:00 +4°C° 0.1 mm 8 m/S 758 mmHg 43%
12:00 +4°C° 0.1 mm 8 m/S 758 mmHg 44%
13:00 +2°C° 0.3 mm 8 m/S 758 mmHg 51%
14:00 +1°C° 0.3 mm 8 m/S 758 mmHg 58%
15:00 +1°C° 0.3 mm 8 m/S 758 mmHg 65%
16:00 0°C° 1 mm 8 m/S 758 mmHg 75%
17:00 -1°C° 1 mm 8 m/S 757 mmHg 86%
18:00 -2°C° 1 mm 8 m/S 757 mmHg 97%
19:00 -2°C° 1.4 mm 8 m/S 757 mmHg 97%
20:00 -2°C° 1.4 mm 8 m/S 757 mmHg 97%
21:00 -2°C° 1.4 mm 8 m/S 757 mmHg 97%
22:00 -1°C° 0.3 mm 8 m/S 757 mmHg 97%
23:00 -1°C° 0.3 mm 8 m/S 756 mmHg 97%

Morgen, 22 April, Donnerstag

Zeit Temperatur Niederschläge Wind Luftdruck Luftfeuchtigkeit
00:00 -1°C° 0.3 mm 7 m/S 756 mmHg 97%
01:00 -1°C° 0.1 mm 7 m/S 756 mmHg 97%
02:00 -1°C° 0.1 mm 7 m/S 756 mmHg 97%
03:00 -1°C° 0.1 mm 7 m/S 756 mmHg 97%
04:00 +1°C° 0 mm 6 m/S 757 mmHg 97%
05:00 +1°C° 0 mm 6 m/S 757 mmHg 97%
06:00 +1°C° 0 mm 5 m/S 757 mmHg 97%
07:00 +1°C° 0 mm 5 m/S 757 mmHg 97%
08:00 +2°C° 0 mm 5 m/S 758 mmHg 97%
09:00 +2°C° 0 mm 5 m/S 758 mmHg 97%
10:00 +3°C° 0 mm 5 m/S 758 mmHg 95%
11:00 +3°C° 0 mm 5 m/S 758 mmHg 94%
12:00 +3°C° 0 mm 5 m/S 758 mmHg 92%
13:00 +5°C° 0 mm 5 m/S 758 mmHg 90%
14:00 +6°C° 0 mm 5 m/S 758 mmHg 88%
15:00 +6°C° 0 mm 5 m/S 758 mmHg 85%
16:00 +6°C° 0 mm 5 m/S 758 mmHg 86%
17:00 +6°C° 0 mm 5 m/S 758 mmHg 87%
18:00 +5°C° 0 mm 6 m/S 758 mmHg 88%
19:00 +4°C° 0 mm 6 m/S 758 mmHg 90%
20:00 +3°C° 0 mm 6 m/S 758 mmHg 92%
21:00 +2°C° 0 mm 6 m/S 759 mmHg 94%
22:00 +2°C° 0 mm 5 m/S 758 mmHg 95%
23:00 +2°C° 0 mm 5 m/S 758 mmHg 96%

übermorgen, 23 April, Freitag

Zeit Temperatur Niederschläge Wind Luftdruck Luftfeuchtigkeit
00:00 +1°C° 0 mm 4 m/S 758 mmHg 96%
01:00 +1°C° 0 mm 4 m/S 759 mmHg 96%
02:00 +1°C° 0 mm 4 m/S 759 mmHg 97%
03:00 +2°C° 0 mm 3 m/S 759 mmHg 97%
04:00 +2°C° 0 mm 3 m/S 759 mmHg 96%
05:00 +3°C° 0 mm 4 m/S 759 mmHg 95%
06:00 +3°C° 0 mm 4 m/S 759 mmHg 94%
07:00 +4°C° 0 mm 4 m/S 759 mmHg 91%
08:00 +5°C° 0 mm 4 m/S 760 mmHg 87%
09:00 +6°C° 0 mm 4 m/S 760 mmHg 84%
10:00 +7°C° 0 mm 4 m/S 760 mmHg 80%
11:00 +8°C° 0 mm 4 m/S 760 mmHg 76%
12:00 +10°C° 0 mm 4 m/S 760 mmHg 72%
13:00 +10°C° 0 mm 4 m/S 759 mmHg 71%
14:00 +11°C° 0 mm 3 m/S 759 mmHg 69%
15:00 +11°C° 0 mm 3 m/S 759 mmHg 68%
16:00 +11°C° 0 mm 3 m/S 759 mmHg 70%
17:00 +10°C° 0 mm 3 m/S 759 mmHg 73%
18:00 +10°C° 0 mm 3 m/S 759 mmHg 75%
19:00 +9°C° 0 mm 3 m/S 759 mmHg 77%
20:00 +8°C° 0 mm 3 m/S 758 mmHg 80%
21:00 +7°C° 0 mm 2 m/S 758 mmHg 82%
22:00 +7°C° 0 mm 3 m/S 758 mmHg 85%
23:00 +5°C° 0 mm 3 m/S 758 mmHg 87%

24 April, Samstag

Zeit Temperatur Niederschläge Wind Luftdruck Luftfeuchtigkeit
00:00 +5°C° 0 mm 3 m/S 757 mmHg 90%
01:00 +4°C° 0 mm 3 m/S 757 mmHg 91%
02:00 +4°C° 0 mm 3 m/S 757 mmHg 92%
03:00 +3°C° 0 mm 3 m/S 756 mmHg 93%
04:00 +4°C° 0 mm 4 m/S 756 mmHg 92%
05:00 +4°C° 0 mm 4 m/S 755 mmHg 91%
06:00 +4°C° 0 mm 4 m/S 755 mmHg 90%
07:00 +5°C° 0 mm 4 m/S 754 mmHg 88%
08:00 +6°C° 0 mm 5 m/S 754 mmHg 85%
09:00 +7°C° 0 mm 5 m/S 753 mmHg 82%
10:00 +6°C° 0.1 mm 4 m/S 753 mmHg 85%
11:00 +6°C° 0.1 mm 4 m/S 753 mmHg 87%
12:00 +5°C° 0.1 mm 3 m/S 752 mmHg 90%
13:00 +5°C° 0.1 mm 3 m/S 752 mmHg 91%
14:00 +5°C° 0.1 mm 3 m/S 752 mmHg 92%
15:00 +5°C° 0.1 mm 3 m/S 751 mmHg 93%
16:00 +5°C° 0.1 mm 3 m/S 751 mmHg 94%
17:00 +6°C° 0.1 mm 2 m/S 751 mmHg 95%
18:00 +6°C° 0.1 mm 2 m/S 750 mmHg 96%
19:00 +6°C° 0 mm 2 m/S 750 mmHg 96%
20:00 +6°C° 0 mm 2 m/S 750 mmHg 96%
21:00 +6°C° 0 mm 1 m/S 749 mmHg 97%
22:00 +6°C° 0 mm 1 m/S 749 mmHg 97%
23:00 +6°C° 0 mm 1 m/S 749 mmHg 97%

25 April, Sonntag

Zeit Temperatur Niederschläge Wind Luftdruck Luftfeuchtigkeit
00:00 +6°C° 0 mm 1 m/S 748 mmHg 98%
01:00 +6°C° 0 mm 1 m/S 748 mmHg 97%
02:00 +5°C° 0 mm 2 m/S 748 mmHg 97%
03:00 +5°C° 0 mm 2 m/S 747 mmHg 97%
04:00 +5°C° 0 mm 2 m/S 747 mmHg 96%
05:00 +5°C° 0 mm 3 m/S 747 mmHg 94%
06:00 +5°C° 0 mm 3 m/S 746 mmHg 93%
07:00 +5°C° 0.5 mm 3 m/S 746 mmHg 92%
08:00 +5°C° 0.5 mm 3 m/S 746 mmHg 92%
09:00 +5°C° 0.5 mm 3 m/S 745 mmHg 92%
10:00 +3°C° 1.3 mm 5 m/S 746 mmHg 91%
11:00 +3°C° 1.3 mm 6 m/S 747 mmHg 91%
12:00 +3°C° 1.3 mm 7 m/S 748 mmHg 90%
13:00 +4°C° 0.2 mm 7 m/S 748 mmHg 79%
14:00 +6°C° 0.2 mm 7 m/S 748 mmHg 69%
15:00 +9°C° 0.2 mm 7 m/S 749 mmHg 59%
16:00 +8°C° 0.2 mm 6 m/S 749 mmHg 61%
17:00 +8°C° 0.2 mm 6 m/S 749 mmHg 63%
18:00 +7°C° 0.2 mm 5 m/S 750 mmHg 65%
19:00 +6°C° 0 mm 4 m/S 750 mmHg 70%
20:00 +5°C° 0 mm 4 m/S 750 mmHg 74%
21:00 +4°C° 0 mm 3 m/S 751 mmHg 79%
22:00 +3°C° 0 mm 3 m/S 751 mmHg 79%
23:00 +3°C° 0 mm 3 m/S 751 mmHg 80%

26 April, Montag

Zeit Temperatur Niederschläge Wind Luftdruck Luftfeuchtigkeit
00:00 +2°C° 0 mm 3 m/S 752 mmHg 81%
01:00 +2°C° 0 mm 3 m/S 752 mmHg 81%
02:00 +2°C° 0 mm 3 m/S 752 mmHg 82%
03:00 +1°C° 0 mm 3 m/S 752 mmHg 83%
04:00 +2°C° 0 mm 3 m/S 752 mmHg 82%
05:00 +3°C° 0 mm 2 m/S 753 mmHg 81%
06:00 +4°C° 0 mm 2 m/S 753 mmHg 80%
07:00 +5°C° 0 mm 2 m/S 753 mmHg 72%
08:00 +7°C° 0 mm 3 m/S 753 mmHg 64%
09:00 +9°C° 0 mm 3 m/S 753 mmHg 57%
10:00 +9°C° 0 mm 3 m/S 753 mmHg 52%
11:00 +10°C° 0 mm 3 m/S 753 mmHg 48%
12:00 +11°C° 0 mm 3 m/S 753 mmHg 44%
13:00 +11°C° 0 mm 3 m/S 753 mmHg 42%
14:00 +12°C° 0 mm 2 m/S 753 mmHg 40%
15:00 +13°C° 0 mm 2 m/S 753 mmHg 38%
16:00 +12°C° 0 mm 1 m/S 753 mmHg 42%
17:00 +11°C° 0 mm 1 m/S 752 mmHg 46%
18:00 +11°C° 0 mm 1 m/S 752 mmHg 50%
19:00 +10°C° 0 mm 1 m/S 752 mmHg 52%
20:00 +9°C° 0 mm 1 m/S 752 mmHg 55%
21:00 +7°C° 0 mm 2 m/S 752 mmHg 57%
22:00 +6°C° 0 mm 2 m/S 751 mmHg 59%
23:00 +6°C° 0 mm 2 m/S 751 mmHg 60%
Mehr zeigen

Wir brauchen deine Erlaubnis

Meteoprog und unser Service Anbieter werden persönliche Daten aufbewahren, so wie Cookies, Geräte Bezeichnung oder ähnliche Technologien von deinem Gerät und Prozess, so wie Persönliche Daten Inhalte und Werbungen, genauso wie social Media und den Verkehr zu analysieren.

  • Aufbewahrung und/oder Zugang zu deiner Geräte Informationen.

    Cookies, Geräte Bezeichnung oder andere Informationen, können aufbewahrt oder Zugang zu deinem Gerät erhalten, für den Grund, der oben angegeben wird.

  • Personalisierte Werbung und Inhalte, Messungen, Einblick in das Publikum und Produkt Entwicklung.

    Werbungen und Inhalte können personalisiert werden, basierend auf ein Profil. Mehr Daten können besser personalisierte Werbungen und Inhalte hinzufügen. Werbung und Inhalte können gezeigt und gemessen werden. Einblicke über das Publikum, welche die Werbung gesehen haben und den Inhalt, können abgeleitet werden. So wie Daten können genutzt werden, um es zu verbessern oder die Benutzer Erfahrung zu verbessern das System und die Software.

Wenn du “Ich stimme zu” klickst, erlaubst du uns, die Cookies zu benutzen die Geräte Bezeichnung, den Web oder ähnliche Technologien zu benutzen. Deine Settings, können in deinem Gerät bei deinem Browser geändert werden.

Für den bestimmten Zweck, berechtigten Interessen beruhen darauf, mehr als auf den Inhalt. Du kannst mehr darüber in unseren Privaten und Cookie Politik lesen.